Location: Grevenbroich
(51.0902°N, 6.5859°E)
Time: 02:00:36
(UTC+01:00)

ISS - Pass Details

Date: 15 February 2026
Orbit: 416 x 427 km, 51.6° (Epoch: 7 March)

Event Time Altitude Azimuth Distance (km) Brightness Sun altitude
Exits shadow 05:32:52 10° 169° (S) 1,477 -0.9 -21.6°
Maximum altitude 05:34:32 13° 139° (SE) 1,297 -0.9 -21.3°
Drops below altitude 10° 05:36:15 10° 108° (ESE) 1,493 0.0 -21.0°
Sets 05:39:08 0° 80° (E) 2,359 1.6 -20.6°
